Location: Tel Aviv
(32.0670°N, 34.7670°E)
Time: 21:01:23
(UTC+03:00)

Transit 2A - Pass Details

Date: 03 June 2024
Orbit: 593 x 959 km, 66.7° (Epoch: 14 June)

Event Time Altitude Azimuth Distance (km) Brightness Sun altitude
Rises 04:33:33 0° 349° (NNW) 3,498 9.8 -11.9°
Reaches altitude 10° 04:36:33 10° 3° (N) 2,604 9.3 -11.4°
Maximum altitude 04:41:20 23° 55° (NE) 1,875 9.1 -10.6°
Drops below altitude 10° 04:46:14 10° 106° (ESE) 2,682 9.4 -9.7°
Sets 04:49:22 0° 120° (ESE) 3,627 9.9 -9.2°
